STARLINK-35075

Last updated on Mon Oct 20 2025 00:02:06 GMT+0000 (Coordinated Universal Time)

1 65702U 25212AC 25292.22682688 -.00434055 00000+0 -86667-2 0 9991 2 65702 53.1583 282.8417 0000864 93.6574 266.4533 15.47867255 5588
UTC large
Height (km)
Speed (km/s)
/
Latitude / Longitude
Inclination (degrees)
Orbital Period (minutes)
Azimuth
Elevation
Range (km)
Doppler Factor

Next 0 passes for location: London (51.5072 / 0.1276)

Sorry there are no passes over London.